Regional Weather Roundup
Issued by NWS

Home | Current Version | Previous Version | Text Only | Print | Product List | Glossary Off
Versions: 1 2 3 4 5 6 7 8 9 10 11 12 13 14 15 16 17 18 19 20 21 22 23 24 25 26 27 28 29 30 31 32 33 34 35 36 37 38 39 40 41 42 43 44 45 46 47 48 49 50

000
ASUS45 KCYS 290310
RWRWY

WYOMING REGIONAL WEATHER ROUNDUP
NATIONAL WEATHER SERVICE CHEYENNE WY
900 PM MDT THU AUG 28 2014

NOTE:  "FAIR" INDICATES FEW OR NO CLOUDS BELOW 12,000 FEET
WITH NO SIGNIFICANT WEATHER AND/OR OBSTRUCTIONS TO VISIBILITY.

WYZ001-290400-
YELLOWSTONE NATIONAL PARK

CITY           SKY/WX    TMP DP  RH WIND       PRES   REMARKS
LK YELLOWSTONE   N/A     55  45  68 CALM      30.28S
W YELLOWSTONE  NOT AVBL

$$
WYZ002>013-054>058-071-098>099-290400-
NORTHERN WYOMING

CITY           SKY/WX    TMP DP  RH WIND       PRES   REMARKS
JACKSON        CLEAR     63  43  48 SW5       30.19R
CODY           PTCLDY    70  45  40 S7        30.02R
GREYBULL       CLEAR     75  45  34 S6        29.94R
WORLAND        CLEAR     66  46  48 S8        29.97R
SHERIDAN       CLEAR     61  48  62 S5        29.96R
BUFFALO        CLEAR     68  46  45 W10       30.05R
GILLETTE       CLEAR     58  54  86 SW5       29.99R
HULETT         FAIR      66  45  45 MISG      29.99
NEWCASTLE      FAIR      63  52  67 SE3       30.00

$$
WYZ014>020-022>026-101>103-290400-
CENTRAL WYOMING

CITY           SKY/WX    TMP DP  RH WIND       PRES   REMARKS
BIG PINEY      CLEAR     56  42  59 NW9       30.24R
PINEDALE       CLEAR     59  43  55 NW8       30.24R
DUBOIS         FAIR      61  34  36 NW8       30.21S
LANDER         CLEAR     67  47  48 SW13      30.06R
RIVERTON       CLEAR     70  38  31 E6        30.08R
CASPER         CLEAR     59  49  69 CALM      30.07R
DOUGLAS        CLEAR     62  51  67 SE5       30.06R

$$
WYZ021-027>030-104>119-290400-
SOUTHERN WYOMING

CITY           SKY/WX    TMP DP  RH WIND       PRES   REMARKS
EVANSTON       MOCLDY    61  44  53 W12       30.29R
KEMMERER       CLEAR     59  43  55 W8        30.28S
FORT BRIDGER   FAIR      60  45  55 W6        30.30R
ROCK SPRINGS   CLEAR     63  43  48 W10       30.22R
DIXON          FAIR      59  52  77 E9        30.24R
RAWLINS        CLEAR     58  39  49 NW7       30.21R
SARATOGA       FAIR      55  46  71 SW12      30.23S
LARAMIE        PTCLDY    55  44  66 W10       30.22R
CHEYENNE       PTCLDY    57  49  74 S7        30.15R
TORRINGTON     PTCLDY    61  54  77 SW5       30.02R
PINE BLUFFS    FAIR      54  50  87 S3        30.11S

$$


USA.gov is the U.S. government's official web portal to all federal, state and local government web resources and services.